星链-37524(STARLINK-37524)

导读 | 豆包AI

STARLINK-37524(NORAD编号68842)是美国SpaceX公司星链(Starlink)卫星互联网星座中的一员,属于低轨通信卫星。星链星座旨在为全球偏远、网络基础设施薄弱地区提供高速互联网接入服务,该卫星运行在近地轨道,通过星间链路和地面网关系统实现全球网络覆盖,可支持个人消费、航空海事通信等场景。截至2024年6月,星链星座已部署超过6000颗卫星,占全球 active卫星总数一半以上,STARLINK-37524也承担着星座扩容、提升网络容量与覆盖稳定性的作用。

基本信息
目录编号:
68842
目录名称:
STARLINK-37524
国际标识:
2026-094D
轨道中心:
EARTH
卫星名称:
星链-37524
卫星全名:
星链-37524(STARLINK-37524)
卫星状态:
在轨 (已飞行29 天)
发射日期:
2026-04-26 UTC
国别 :
美国 (US)
星等 :
--
轨道信息
数据来源 国际轨道数据
星历时间: 2026-05-24T12:00:02+0800
1天前
查看轨道信息
半长轴: 6797.212km
偏心率: 0.0001722
轨道倾角: 97.285°
近地点辐角 88.726°
升交点赤经 158.871°
平近点角 209.150°
近地点: 417.904km
远地点: 420.246km
周期: 92.951分钟
每日圈数: 15.491969
详细信息
固有亮度:
5
最大亮度:
2.5
卫星平台:
Starlink V1.0
覆盖范围:
全球
运营商:
太空探索技术公司
运营商所在国:
美国
制造商(研发单位):
太空探索技术公司
制造商所在国:
美国
使用方式:
暂无
卫星简介
Starlink 计划是 SpaceX 推出的全球卫星互联网项目,通过发射低轨道卫星,为全球尤其是偏远地区提供高速、低延迟的互联网服务。自 2019 年起,Starlink 已部署数千颗卫星,旨在缩小全球数字鸿沟,推动互联网普及。该项目还为军事、航空等行业提供通信支持,带来广泛经济效益。
2D轨道图
3D轨道图
轨道高度分析图
轨道倾角分析图
轨道综合分析图
查看轨道综合分析图